BOE1Z SVMI-TNCM

Flight info

Callsign BOE1Z
Flight time 1h 19m
Altitude 37000
Route UBKET UN779 TOSOS UM414 KIKER M423 RAYAS M576 DANDE
Aircraft B744/H-SDE3FGHIM1M2RWXY/LB1

Departure

Time 2026-05-04 00:32
Airport Maiquetía Simón Bolívar International Airport (SVMI)

Arrival

Time 2026-05-04 01:52
Airport Princess Juliana International Airport (TNCM)
Time Latitude Longitude Altitude Speed Heading
2026-05-04 00:00 10.59824 -67.00843 307 ft 0 kts 178°
2026-05-04 00:11 10.59825 -67.00843 309 ft 1 kts 178°
2026-05-04 00:11 10.59839 -67.00843 314 ft 2 kts 178°
2026-05-04 00:12 10.59854 -67.00843 320 ft 2 kts 191°
2026-05-04 00:12 10.59868 -67.00839 326 ft 2 kts 205°
2026-05-04 00:12 10.59882 -67.00831 330 ft 2 kts 217°
2026-05-04 00:12 10.59893 -67.00821 324 ft 2 kts 230°
2026-05-04 00:13 10.59901 -67.00808 318 ft 2 kts 243°
2026-05-04 00:13 10.59907 -67.00794 312 ft 2 kts 256°
2026-05-04 00:13 10.59909 -67.00781 307 ft 0 kts 267°
2026-05-04 00:13 10.59909 -67.00777 308 ft 0 kts 268°
2026-05-04 00:14 10.59909 -67.00778 308 ft 0 kts 268°
2026-05-04 00:14 10.59909 -67.00787 307 ft 1 kts 268°
2026-05-04 00:14 10.59908 -67.00803 307 ft 2 kts 268°
2026-05-04 00:14 10.59908 -67.00808 307 ft 0 kts 268°
2026-05-04 00:16 10.59907 -67.00826 306 ft 11 kts 268°
2026-05-04 00:16 10.59903 -67.00962 302 ft 21 kts 268°
2026-05-04 00:16 10.59898 -67.01109 297 ft 18 kts 268°
2026-05-04 00:17 10.59895 -67.01196 294 ft 9 kts 274°
2026-05-04 00:17 10.59943 -67.01242 290 ft 11 kts 352°
2026-05-04 00:17 10.60024 -67.01249 288 ft 11 kts 356°
2026-05-04 00:17 10.60080 -67.01252 288 ft 0 kts 358°
2026-05-04 00:30 10.60133 -67.01253 287 ft 14 kts 358°
2026-05-04 00:30 10.60223 -67.01256 289 ft 10 kts 359°
2026-05-04 00:30 10.60291 -67.01258 291 ft 10 kts 358°
2026-05-04 00:31 10.60375 -67.01244 293 ft 13 kts 44°
2026-05-04 00:31 10.60387 -67.01139 297 ft 20 kts 93°
2026-05-04 00:31 10.60392 -67.00832 301 ft 68 kts 88°
2026-05-04 00:31 10.60417 -67.00140 299 ft 133 kts 88°
2026-05-04 00:32 10.60469 -66.98962 292 ft 197 kts 87°
2026-05-04 00:32 10.60507 -66.97594 961 ft 184 kts 90°
2026-05-04 00:32 10.60485 -66.96329 1276 ft 180 kts 88°
2026-05-04 00:32 10.60519 -66.95036 1419 ft 185 kts 86°
2026-05-04 00:33 10.60562 -66.93713 1894 ft 192 kts 81°
2026-05-04 00:33 10.61922 -66.91442 2941 ft 201 kts 33°
2026-05-04 00:33 10.63263 -66.90980 3377 ft 212 kts 10°
2026-05-04 00:34 10.64760 -66.90856 3730 ft 219 kts
2026-05-04 00:34 10.66327 -66.90700 4268 ft 241 kts
2026-05-04 00:34 10.68061 -66.90527 4788 ft 258 kts
2026-05-04 00:34 10.69879 -66.90340 5386 ft 267 kts
2026-05-04 00:35 10.71784 -66.90146 6036 ft 278 kts
2026-05-04 00:35 10.73715 -66.89981 6678 ft 284 kts
2026-05-04 00:35 10.75698 -66.89928 7372 ft 287 kts
2026-05-04 00:35 10.77704 -66.89852 8084 ft 288 kts
2026-05-04 00:36 10.79719 -66.89786 8778 ft 290 kts
2026-05-04 00:36 10.81743 -66.89701 9442 ft 292 kts
2026-05-04 00:36 10.83780 -66.89633 10075 ft 295 kts
2026-05-04 00:36 10.85856 -66.89661 10669 ft 299 kts 359°
2026-05-04 00:37 10.87944 -66.89780 11246 ft 302 kts
2026-05-04 00:37 10.90027 -66.89871 11808 ft 304 kts
2026-05-04 00:37 10.92167 -66.89972 12364 ft 307 kts
2026-05-04 00:37 10.94313 -66.90063 12891 ft 310 kts
2026-05-04 00:38 10.96499 -66.90158 13394 ft 314 kts
2026-05-04 00:38 10.98680 -66.90249 13901 ft 317 kts
2026-05-04 00:38 11.00888 -66.90341 14405 ft 319 kts
2026-05-04 00:38 11.03130 -66.90437 14897 ft 322 kts
2026-05-04 00:39 11.05371 -66.90527 15374 ft 324 kts
2026-05-04 00:39 11.07670 -66.90626 15862 ft 326 kts
2026-05-04 00:39 11.09929 -66.90723 16315 ft 329 kts
2026-05-04 00:39 11.12234 -66.90823 16749 ft 332 kts
2026-05-04 00:40 11.14541 -66.90926 17176 ft 334 kts
2026-05-04 00:40 11.16899 -66.91023 17603 ft 337 kts
2026-05-04 00:40 11.19234 -66.91125 18033 ft 338 kts
2026-05-04 00:40 11.21587 -66.91213 18475 ft 340 kts
2026-05-04 00:41 11.23977 -66.91317 18921 ft 340 kts 360°
2026-05-04 00:41 11.26353 -66.91415 19352 ft 341 kts 360°
2026-05-04 00:41 11.28716 -66.91515 19772 ft 342 kts 359°
2026-05-04 00:41 11.31104 -66.91612 20178 ft 348 kts 359°
2026-05-04 00:42 11.33592 -66.91713 20800 ft 358 kts 358°
2026-05-04 00:42 11.36082 -66.91818 21673 ft 360 kts 358°
2026-05-04 00:42 11.38570 -66.91919 22541 ft 362 kts 357°
2026-05-04 00:42 11.41081 -66.92033 23341 ft 365 kts 356°
2026-05-04 00:43 11.43638 -66.92168 24066 ft 370 kts 356°
2026-05-04 00:43 11.46239 -66.92064 24690 ft 377 kts
2026-05-04 00:43 11.48870 -66.91785 25288 ft 384 kts
2026-05-04 00:43 11.51566 -66.91566 25833 ft 393 kts
2026-05-04 00:44 11.54359 -66.91329 26294 ft 403 kts
2026-05-04 00:44 11.57184 -66.91094 26618 ft 417 kts
2026-05-04 00:44 11.60147 -66.90855 26862 ft 431 kts
2026-05-04 00:44 11.63124 -66.90604 27460 ft 435 kts
2026-05-04 00:45 11.66202 -66.90348 28025 ft 440 kts
2026-05-04 00:45 11.69220 -66.90096 28637 ft 443 kts
2026-05-04 00:45 11.72346 -66.89838 29187 ft 447 kts
2026-05-04 00:45 11.75452 -66.89590 29765 ft 449 kts
2026-05-04 00:46 11.78567 -66.89337 30319 ft 452 kts
2026-05-04 00:46 11.81704 -66.89075 30860 ft 454 kts
2026-05-04 00:46 11.84897 -66.88810 31396 ft 456 kts
2026-05-04 00:46 11.88068 -66.88554 31900 ft 457 kts
2026-05-04 00:47 11.91214 -66.88299 32393 ft 459 kts
2026-05-04 00:47 11.94405 -66.88028 32850 ft 461 kts
2026-05-04 00:47 11.97633 -66.87766 33274 ft 464 kts
2026-05-04 00:47 12.00853 -66.87508 33660 ft 467 kts
2026-05-04 00:48 12.04118 -66.87234 34059 ft 469 kts
2026-05-04 00:48 12.07400 -66.86965 34451 ft 471 kts
2026-05-04 00:48 12.10670 -66.86694 34832 ft 473 kts
2026-05-04 00:48 12.13946 -66.86421 35141 ft 475 kts
2026-05-04 00:49 12.17242 -66.86152 35333 ft 480 kts
2026-05-04 00:49 12.24000 -66.85593 35318 ft 494 kts
2026-05-04 00:49 12.27473 -66.85300 34982 ft 505 kts
2026-05-04 00:50 12.31039 -66.84988 34819 ft 510 kts
2026-05-04 00:50 12.34506 -66.84222 34685 ft 517 kts 16°
2026-05-04 00:50 12.37806 -66.82743 34686 ft 521 kts 27°
2026-05-04 00:51 12.44125 -66.79012 34822 ft 521 kts 27°
2026-05-04 00:51 12.50471 -66.75432 34965 ft 520 kts 26°
2026-05-04 00:52 12.56803 -66.71902 35076 ft 520 kts 27°
2026-05-04 00:52 12.63186 -66.68349 35145 ft 520 kts 26°
2026-05-04 00:53 12.69550 -66.64806 35203 ft 520 kts 26°
2026-05-04 00:53 12.75915 -66.61260 35273 ft 520 kts 26°
2026-05-04 00:54 12.82251 -66.57735 35350 ft 519 kts 26°
2026-05-04 00:54 12.88628 -66.54178 35402 ft 519 kts 26°
2026-05-04 00:55 12.94965 -66.50645 35451 ft 519 kts 26°
2026-05-04 00:55 13.01302 -66.47106 35515 ft 518 kts 26°
2026-05-04 00:56 13.07643 -66.43561 35564 ft 517 kts 27°
2026-05-04 00:56 13.13961 -66.40028 35624 ft 516 kts 26°
2026-05-04 00:57 13.20268 -66.36513 35677 ft 516 kts 26°
2026-05-04 00:57 13.26576 -66.32981 35736 ft 515 kts 27°
2026-05-04 00:58 13.32866 -66.29457 35770 ft 514 kts 27°
2026-05-04 00:58 13.39144 -66.25946 35815 ft 514 kts 27°
2026-05-04 00:59 13.45415 -66.22427 35862 ft 514 kts 27°
2026-05-04 00:59 13.51722 -66.18895 35897 ft 513 kts 27°
2026-05-04 01:00 13.57960 -66.15392 35943 ft 512 kts 27°
2026-05-04 01:00 13.64228 -66.11874 35978 ft 511 kts 26°
2026-05-04 01:01 13.70454 -66.08374 36055 ft 510 kts 27°
2026-05-04 01:01 13.76687 -66.04874 36193 ft 509 kts 27°
2026-05-04 01:02 13.82885 -66.01386 36358 ft 507 kts 26°
2026-05-04 01:02 13.85989 -65.99639 36460 ft 506 kts 26°
2026-05-04 01:02 13.89061 -65.97908 36582 ft 504 kts 26°
2026-05-04 01:03 13.95223 -65.94438 36798 ft 495 kts 26°
2026-05-04 01:03 14.01155 -65.91099 36917 ft 481 kts 26°
2026-05-04 01:04 14.06983 -65.87807 36970 ft 478 kts 26°
2026-05-04 01:04 14.12837 -65.84509 36999 ft 479 kts 26°
2026-05-04 01:05 14.18701 -65.81206 36990 ft 479 kts 26°
2026-05-04 01:05 14.24530 -65.77899 36992 ft 477 kts 26°
2026-05-04 01:06 14.30316 -65.74638 36991 ft 476 kts 26°
2026-05-04 01:06 14.36158 -65.71343 36995 ft 475 kts 26°
2026-05-04 01:07 14.41942 -65.68076 36997 ft 475 kts 26°
2026-05-04 01:07 14.47774 -65.64779 36997 ft 475 kts 26°
2026-05-04 01:08 14.53609 -65.61474 37022 ft 484 kts 26°
2026-05-04 01:08 14.59581 -65.58082 37041 ft 495 kts 26°
2026-05-04 01:09 14.65662 -65.54636 37029 ft 500 kts 26°
2026-05-04 01:09 14.71751 -65.51178 37005 ft 498 kts 26°
2026-05-04 01:10 14.77795 -65.47745 36997 ft 497 kts 26°
2026-05-04 01:10 14.83883 -65.44282 37000 ft 497 kts 26°
2026-05-04 01:11 14.90000 -65.40797 37003 ft 496 kts 26°
2026-05-04 01:11 14.96163 -65.37289 37002 ft 496 kts 26°
2026-05-04 01:12 15.02235 -65.33832 37004 ft 496 kts 26°
2026-05-04 01:12 15.08531 -65.30953 36970 ft 489 kts 11°
2026-05-04 01:12 15.11936 -65.30503 36993 ft 486 kts 359°
2026-05-04 01:13 15.15311 -65.30804 37007 ft 485 kts 347°
2026-05-04 01:13 15.21696 -65.33101 37051 ft 486 kts 339°
2026-05-04 01:14 15.28132 -65.35365 37026 ft 485 kts 341°
2026-05-04 01:14 15.34559 -65.37530 37014 ft 485 kts 341°
2026-05-04 01:15 15.41101 -65.39703 37019 ft 485 kts 342°
2026-05-04 01:15 15.47644 -65.41867 37019 ft 484 kts 341°
2026-05-04 01:16 15.54124 -65.44000 37017 ft 485 kts 342°
2026-05-04 01:16 15.60559 -65.46113 37019 ft 485 kts 342°
2026-05-04 01:17 15.67205 -65.47543 36987 ft 487 kts 358°
2026-05-04 01:17 15.70601 -65.47212 37003 ft 490 kts 10°
2026-05-04 01:17 15.73823 -65.46169 37013 ft 494 kts 21°
2026-05-04 01:17 15.76893 -65.44381 37020 ft 499 kts 33°
2026-05-04 01:18 15.79536 -65.41971 37024 ft 505 kts 45°
2026-05-04 01:18 15.81656 -65.39048 37028 ft 510 kts 56°
2026-05-04 01:18 15.83555 -65.35904 37041 ft 509 kts 52°
2026-05-04 01:19 15.88121 -65.30316 37039 ft 507 kts 44°
2026-05-04 01:19 15.93044 -65.25056 37032 ft 505 kts 42°
2026-05-04 01:20 15.98071 -65.19920 37023 ft 504 kts 41°
2026-05-04 01:20 16.03131 -65.14854 37031 ft 504 kts 41°
2026-05-04 01:21 16.08197 -65.09771 37033 ft 504 kts 41°
2026-05-04 01:21 16.13276 -65.04662 37038 ft 504 kts 40°
2026-05-04 01:22 16.18362 -64.99612 37032 ft 504 kts 41°
2026-05-04 01:22 16.23437 -64.94543 37034 ft 504 kts 41°
2026-05-04 01:23 16.28520 -64.89486 37030 ft 504 kts 41°
2026-05-04 01:23 16.33614 -64.84391 37040 ft 504 kts 41°
2026-05-04 01:24 16.38737 -64.79267 37042 ft 503 kts 41°
2026-05-04 01:24 16.43885 -64.74107 36821 ft 504 kts 41°
2026-05-04 01:24 16.46432 -64.71567 36481 ft 496 kts 41°
2026-05-04 01:25 16.48952 -64.69050 36019 ft 489 kts 41°
2026-05-04 01:25 16.51428 -64.66573 35473 ft 478 kts 41°
2026-05-04 01:25 16.53798 -64.64203 34931 ft 461 kts 42°
2026-05-04 01:25 16.56096 -64.61901 34379 ft 446 kts 42°
2026-05-04 01:26 16.58297 -64.59691 33832 ft 431 kts 42°
2026-05-04 01:26 16.60472 -64.57517 33264 ft 418 kts 43°
2026-05-04 01:26 16.62580 -64.55402 32671 ft 409 kts 43°
2026-05-04 01:26 16.64647 -64.53326 32203 ft 411 kts 43°
2026-05-04 01:27 16.66713 -64.51243 31746 ft 412 kts 43°
2026-05-04 01:27 16.68798 -64.49142 31268 ft 411 kts 43°
2026-05-04 01:27 16.70844 -64.47078 30794 ft 405 kts 44°
2026-05-04 01:27 16.72855 -64.45051 30284 ft 395 kts 43°
2026-05-04 01:28 16.74829 -64.43064 29817 ft 396 kts 44°
2026-05-04 01:28 16.76789 -64.41090 29361 ft 392 kts 44°
2026-05-04 01:28 16.78752 -64.39114 28871 ft 388 kts 44°
2026-05-04 01:28 16.80684 -64.37167 28416 ft 386 kts 44°
2026-05-04 01:29 16.82617 -64.35218 27938 ft 385 kts 44°
2026-05-04 01:29 16.84529 -64.33291 27472 ft 379 kts 44°
2026-05-04 01:29 16.86405 -64.31398 26989 ft 378 kts 44°
2026-05-04 01:29 16.88280 -64.29504 26528 ft 373 kts 44°
2026-05-04 01:30 16.90163 -64.27600 26043 ft 370 kts 44°
2026-05-04 01:30 16.91993 -64.25752 25584 ft 370 kts 44°
2026-05-04 01:30 16.93846 -64.23882 25112 ft 366 kts 44°
2026-05-04 01:30 16.95637 -64.22073 24632 ft 361 kts 44°
2026-05-04 01:31 16.97442 -64.20250 24180 ft 361 kts 44°
2026-05-04 01:31 16.99258 -64.18417 23706 ft 355 kts 44°
2026-05-04 01:31 17.01009 -64.16646 23227 ft 353 kts 44°
2026-05-04 01:31 17.02771 -64.14865 22778 ft 353 kts 44°
2026-05-04 01:32 17.04535 -64.13082 22319 ft 350 kts 44°
2026-05-04 01:32 17.06221 -64.11376 21857 ft 345 kts 43°
2026-05-04 01:32 17.07964 -64.09611 21403 ft 346 kts 43°
2026-05-04 01:32 17.09687 -64.07874 20953 ft 343 kts 43°
2026-05-04 01:33 17.11395 -64.06139 20505 ft 342 kts 44°
2026-05-04 01:33 17.13108 -64.04404 20065 ft 343 kts 43°
2026-05-04 01:33 17.14791 -64.02690 19606 ft 336 kts 44°
2026-05-04 01:33 17.16473 -64.00972 19150 ft 338 kts 43°
2026-05-04 01:34 17.18143 -63.99289 18714 ft 336 kts 43°
2026-05-04 01:34 17.19823 -63.97592 18255 ft 336 kts 43°
2026-05-04 01:34 17.21503 -63.95896 17815 ft 335 kts 43°
2026-05-04 01:34 17.23156 -63.94211 17358 ft 330 kts 43°
2026-05-04 01:35 17.24825 -63.92522 16916 ft 331 kts 43°
2026-05-04 01:35 17.26453 -63.90876 16470 ft 324 kts 43°
2026-05-04 01:35 17.28063 -63.89256 16014 ft 322 kts 43°
2026-05-04 01:35 17.29679 -63.87617 15573 ft 319 kts 44°
2026-05-04 01:36 17.31264 -63.86012 15116 ft 317 kts 44°
2026-05-04 01:36 17.32845 -63.84407 14674 ft 316 kts 44°
2026-05-04 01:36 17.34402 -63.82825 14226 ft 312 kts 44°
2026-05-04 01:36 17.35951 -63.81253 13780 ft 308 kts 44°
2026-05-04 01:37 17.37486 -63.79692 13316 ft 301 kts 44°
2026-05-04 01:37 17.38975 -63.78179 12850 ft 294 kts 45°
2026-05-04 01:37 17.40423 -63.76711 12391 ft 288 kts 45°
2026-05-04 01:37 17.41854 -63.75265 11929 ft 284 kts 45°
2026-05-04 01:38 17.43298 -63.73799 11488 ft 286 kts 45°
2026-05-04 01:38 17.44732 -63.72336 11040 ft 283 kts 45°
2026-05-04 01:38 17.46125 -63.70913 10585 ft 281 kts 46°
2026-05-04 01:38 17.47558 -63.69440 10142 ft 282 kts 46°
2026-05-04 01:39 17.48964 -63.67996 9691 ft 277 kts 46°
2026-05-04 01:39 17.50317 -63.66585 9229 ft 272 kts 45°
2026-05-04 01:39 17.51823 -63.65376 8757 ft 272 kts 35°
2026-05-04 01:39 17.53425 -63.64281 8320 ft 273 kts 36°
2026-05-04 01:40 17.55001 -63.63149 7869 ft 271 kts 36°
2026-05-04 01:40 17.56558 -63.62045 7412 ft 266 kts 37°
2026-05-04 01:40 17.58098 -63.60941 6952 ft 265 kts 37°
2026-05-04 01:40 17.59616 -63.59848 6502 ft 261 kts 37°
2026-05-04 01:41 17.61117 -63.58774 6042 ft 261 kts 37°
2026-05-04 01:41 17.62610 -63.57697 5590 ft 257 kts 37°
2026-05-04 01:41 17.64086 -63.56632 5137 ft 253 kts 38°
2026-05-04 01:41 17.65538 -63.55584 4666 ft 250 kts 38°
2026-05-04 01:42 17.66959 -63.54565 4184 ft 248 kts 38°
2026-05-04 01:42 17.68384 -63.53533 3690 ft 246 kts 38°
2026-05-04 01:42 17.69802 -63.52512 3333 ft 241 kts 38°
2026-05-04 01:42 17.71170 -63.51517 3193 ft 241 kts 38°
2026-05-04 01:43 17.72569 -63.50504 3124 ft 243 kts 38°
2026-05-04 01:43 17.73987 -63.49473 3051 ft 243 kts 38°
2026-05-04 01:43 17.75426 -63.48434 3007 ft 243 kts 38°
2026-05-04 01:43 17.76817 -63.47427 2984 ft 242 kts 38°
2026-05-04 01:44 17.78208 -63.46416 2967 ft 243 kts 38°
2026-05-04 01:44 17.79617 -63.45394 2960 ft 243 kts 38°
2026-05-04 01:44 17.81013 -63.44381 2952 ft 243 kts 38°
2026-05-04 01:44 17.82424 -63.43359 2947 ft 243 kts 38°
2026-05-04 01:45 17.83826 -63.42341 2945 ft 243 kts 38°
2026-05-04 01:45 17.85259 -63.41300 2947 ft 244 kts 39°
2026-05-04 01:45 17.88100 -63.39232 2950 ft 245 kts 38°
2026-05-04 01:46 17.89546 -63.38184 2955 ft 245 kts 38°
2026-05-04 01:46 17.90965 -63.37162 2956 ft 244 kts 38°
2026-05-04 01:46 17.92383 -63.36136 2955 ft 244 kts 38°
2026-05-04 01:46 17.93819 -63.35090 2953 ft 244 kts 38°
2026-05-04 01:47 17.95234 -63.34061 2952 ft 243 kts 38°
2026-05-04 01:47 17.96659 -63.33024 2953 ft 243 kts 39°
2026-05-04 01:47 17.98070 -63.31990 2956 ft 243 kts 39°
2026-05-04 01:47 17.99480 -63.30948 2952 ft 243 kts 39°
2026-05-04 01:48 18.00821 -63.29800 2926 ft 240 kts 53°
2026-05-04 01:48 18.01623 -63.28267 2937 ft 235 kts 76°
2026-05-04 01:48 18.01892 -63.26578 2917 ft 222 kts 84°
2026-05-04 01:48 18.02105 -63.24946 2825 ft 229 kts 84°
2026-05-04 01:49 18.02304 -63.23291 2673 ft 214 kts 83°
2026-05-04 01:49 18.02500 -63.21854 2657 ft 177 kts 82°
2026-05-04 01:49 18.02672 -63.20631 2405 ft 158 kts 82°
2026-05-04 01:49 18.02879 -63.19482 1977 ft 159 kts 79°
2026-05-04 01:50 18.03108 -63.18326 1551 ft 156 kts 81°
2026-05-04 01:50 18.03268 -63.17193 1070 ft 154 kts 84°
2026-05-04 01:50 18.03379 -63.16066 693 ft 148 kts 85°
2026-05-04 01:50 18.03496 -63.14974 458 ft 147 kts 83°
2026-05-04 01:51 18.03662 -63.13895 343 ft 147 kts 82°
2026-05-04 01:51 18.03818 -63.12832 139 ft 139 kts 82°
2026-05-04 01:51 18.03960 -63.11828 31 ft 131 kts 82°
2026-05-04 01:51 18.04069 -63.11015 20 ft 87 kts 82°
2026-05-04 01:52 18.04122 -63.10651 19 ft 20 kts 79°
2026-05-04 01:52 18.04118 -63.10532 21 ft 11 kts 98°
2026-05-04 01:52 18.04134 -63.10473 22 ft 5 kts 19°
2026-05-04 01:52 18.04155 -63.10490 22 ft 3 kts 266°
2026-05-04 01:53 18.04136 -63.10594 20 ft 29 kts 259°
2026-05-04 01:53 18.04100 -63.10834 18 ft 32 kts 263°
2026-05-04 01:53 18.04069 -63.11066 20 ft 30 kts 262°
2026-05-04 01:53 18.04052 -63.11188 22 ft 13 kts 262°
2026-05-04 01:54 18.04057 -63.11274 22 ft 11 kts 306°
2026-05-04 01:54 18.04135 -63.11300 22 ft 10 kts 356°
2026-05-04 01:54 18.04139 -63.11300 22 ft 0 kts 356°
2026-05-04 01:54 18.04147 -63.11301 22 ft 1 kts 356°
2026-05-04 01:55 18.04189 -63.11305 22 ft 10 kts 352°
2026-05-04 01:55 18.04259 -63.11352 24 ft 11 kts 331°
2026-05-04 01:55 18.04317 -63.11361 25 ft 0 kts 348°
2026-05-04 01:55 18.04318 -63.11361 25 ft 0 kts 351°
2026-05-04 01:56 18.04320 -63.11361 25 ft 0 kts 354°